Regional Weather Roundup
Issued by NWS

Home | Current Version | Previous Version | Text Only | Print | Product List | Glossary Off
Versions: 1 2 3 4 5 6 7 8 9 10 11 12 13 14 15 16 17 18 19 20 21 22 23 24 25 26 27 28 29 30 31 32 33 34 35 36 37 38 39 40 41 42 43 44 45 46 47 48 49 50

000
ASUS43 KOAX 080510
RWRNE

WEATHER ROUNDUP FOR NEBRASKA
NATIONAL WEATHER SERVICE OMAHA NE
1100 PM CST SUN FEB 07 2016

NOTES: SATELLITE DATA IS BEING USED TO AUGMENT CLOUD COVER ABOVE
       12000 FEET.
       "FAIR" INDICATES FEW OR NO CLOUDS BELOW 12,000 FEET WITH NO
       SIGNIFICANT WEATHER AND/OR OBSTRUCTIONS TO VISIBILITY.

  * THESE STATIONS DO NOT REPORT WEATHER SUCH AS RAIN...SNOW OR FOG.

NEZ001>004-019>022-054>056-080600-
NEBRASKA PANHANDLE

CITY           SKY/WX    TMP DP  RH WIND       PRES   REMARKS
SCOTTSBLUFF    CLEAR     26  13  57 NW13      30.37S WCI  15
ALLIANCE       CLEAR     19  10  68 NW16      30.30R WCI   4
CHADRON        CLEAR     28  14  55 NW20G29   30.33R WCI  15
KIMBALL        CLEAR     26  10  50 NW21      30.35S WCI  12
SIDNEY         CLEAR     25  12  58 NW26G33   30.33S WCI   9
$$

NEZ057>060-069>072-079>082-080600-
SOUTHWEST NEBRASKA

CITY           SKY/WX    TMP DP  RH WIND       PRES   REMARKS
NORTH PLATTE   CLEAR     25  14  63 NW13      30.24R WCI  14
IMPERIAL       CLEAR     28  13  53 NW23G31   30.29R WCI  14
LEXINGTON      CLEAR     28  16  61 NW15      30.21R WCI  16
MCCOOK         CLEAR     29  17  61 NW20      30.26R WCI  16
OGALLALA       CLEAR     26  14  59 NW18      30.29R WCI  13
$$

NEZ005>010-023>029-035>040-094-080600-
NORTH CENTRAL NEBRASKA

CITY           SKY/WX    TMP DP  RH WIND       PRES   REMARKS
VALENTINE      CLOUDY    32  17  54 NW31G40   30.19R WCI  17
AINSWORTH      MOCLDY    33  17  52 NW30G39   30.16F WCI  19
BROKEN BOW     MOCLDY    33  18  53 NW28G35   30.15S WCI  20
O`NEILL        PTCLDY    32  17  52 NW22G35   30.10S WCI  19
ORD            CLEAR     31  18  58 NW22G28   30.12R WCI  18
THEDFORD       CLEAR     31  17  56 NW18G28   30.21S WCI  19
$$

NEZ041-046>049-061>064-073>077-083>087-080600-
SOUTH CENTRAL NEBRASKA

CITY           SKY/WX    TMP DP  RH WIND       PRES   REMARKS
GRAND ISLAND   CLEAR     32  17  54 NW22G31   30.14R WCI  19
AURORA         CLEAR     32  19  58 NW26G32   30.11R WCI  18
HASTINGS       CLEAR     31  18  58 NW21G28   30.14R WCI  18
HEBRON         CLEAR     34  20  56 NW20G28   30.13R WCI  23
HOLDREGE       CLEAR     30  16  56 NW17      30.19R WCI  18
YORK           CLEAR     32  19  59 NW26G35   30.08R WCI  18
$$

NEZ011>018-030>034-042>045-080600-
NORTHEAST NEBRASKA

CITY           SKY/WX    TMP DP  RH WIND       PRES   REMARKS
NORFOLK        CLOUDY    34  19  54 NW35G46   30.01S WCI  19
ALBION         PTCLDY    32  17  55 NW29G37   30.05S WCI  17
BLAIR          CLOUDY    31  23  72 NW28G39   29.98R WCI  17
COLUMBUS *     PTCLDY    32  14  47 NW21G33   30.06R WCI  20
FREMONT        CLOUDY    32  25  76 NW16      30.03S WCI  21
TEKAMAH        CLOUDY    31  23  72 NW29G38   30.01R WCI  16
WAYNE          CLOUDY    31  24  74 NW18G30   30.00S WCI  19
$$

NEZ050>053-065>068-078-088>093-080600-
SOUTHEAST NEBRASKA

CITY           SKY/WX    TMP DP  RH WIND       PRES   REMARKS
LINCOLN        CLOUDY    36  22  56 NW25G31   30.06R WCI  24
OMAHA EPPLEY   LGT SNOW  31  27  85 NW28G33   29.99S FOG     WCI  17
BEATRICE       CLOUDY    35  24  63 NW23G31   30.07R WCI  23
FALLS CITY     MOCLDY    36  27  69 NW22G30   30.01F WCI  25
NEBRASKA CITY  CLOUDY    34  23  65 N31G45    30.00S WCI  20
PLATTSMOUTH    CLOUDY    32  22  67 NW40G55   29.97S WCI  16
$$

NEZ044-045-051>053-067-080600-
OMAHA AREA

CITY           SKY/WX    TMP DP  RH WIND       PRES   REMARKS
OMAHA EPPLEY   LGT SNOW  31  27  85 NW28G33   29.99S FOG     WCI  17
BLAIR          CLOUDY    31  23  72 NW28G39   29.98R WCI  17
FREMONT        CLOUDY    32  25  76 NW16      30.03S WCI  21
MILLARD        CLOUDY    33  24  68 NW15G33   30.01R WCI  23
OFFUTT AFB     FLURRIES  33  24  68 NW35G56   29.99R WCI  18
PLATTSMOUTH    CLOUDY    32  22  67 NW40G55   29.97S WCI  16
WAHOO          CLOUDY    34  24  64 NW20G31   30.02S WCI  23
$$



USA.gov is the U.S. government's official web portal to all federal, state and local government web resources and services.